2020 TB12
ephemeris date magn radius delta ra dec elong phase
Today5 Sep 202624.91.270 AU1.288 AU06h26m+14°45'65.8°46.4°
2020 TB12 - 2026-09-05
astro.vanbuitenen.nl


 
-1 year
-1 month
-1 day
Now
+1 day
+1 month
+1 year

The interactive orbit chart above shows the body's path through the solar system and its position at the given date. Green and blue lines are shown perpendicular to the ecliptic plane: Green if the path is above the ecliptic plane, blue if it is below. (Left-click and drag to rotate the view; Right-click and drag to move the view; Use scroll wheel to zoom in our out.)

The orbital elements of 2020 TB12 are:

            e (Eccentricity)                : 0.5206541
            a (Semimajor axis)              : 2.0337251
            i (Inclination)                 : 8.86661
            Ω (Longitude of ascending node) : 126.73485
            ω (Argument of perihelion)      : 353.98082
            M (Mean anomaly)                : 306.90397
            Epoch                           : 2026 Jun 09

            L (Longitude of perihelion)     : 120.78708
            B (Latitude of perihelion)      : -0.92610
            P (Orbital period in years)     : 2.90            
        

The light curve chart below shows the estimated development of the minor planet's magnitude.


The all-sky chart below shows the path of the minor planet over the same period as the light curve. The current position is marked yellow.





The following chart shows the path of the minor planet in the next few days. The field of view is optimized for (~10x50) binoculars and finderscopes.




Ephemerides:
Date       Time       RA (2000)    DEC (2000)    delta   radius  elong  phase   PA    magn
2026-09-05 00:00 UT   06 26 44.6   +14 45 42     1.288    1.270   65.8   46.4   269   24.9 
2026-09-05 16:06 UT   06 29 35.7   +14 44 21     1.283    1.266   65.8   46.6   269   24.9 
2026-09-06 00:00 UT   06 30 59.9   +14 43 38     1.280    1.263   65.8   46.7   269   24.9 
2026-09-07 00:00 UT   06 35 17.0   +14 41 15     1.272    1.256   65.7   47.0   270   24.9 
2026-09-08 00:00 UT   06 39 35.7   +14 38 32     1.264    1.250   65.6   47.3   270   24.9 
2026-09-09 00:00 UT   06 43 56.2   +14 35 29     1.256    1.243   65.5   47.5   271   24.9 
2026-09-10 00:00 UT   06 48 18.3   +14 32 05     1.249    1.236   65.4   47.8   271   24.9 
2026-09-11 00:00 UT   06 52 42.0   +14 28 21     1.241    1.229   65.3   48.1   271   24.8 
2026-09-12 00:00 UT   06 57 07.3   +14 24 16     1.234    1.222   65.2   48.4   272   24.8 
2026-09-13 00:00 UT   07 01 34.2   +14 19 50     1.227    1.216   65.1   48.7   272   24.8 


    Terminology:
            
    delta:  distance between minor planet and earth in AU
    radius: distance between minor planet and sun in AU
    magn:   magnitude (brightness) estimate    
    ra:     right ascension in hours (24h = 360deg)
    dec:    declination in degrees
    elong:  elongation in degrees (angle sun-earth-minor planet)    
    phase:  phase angle in degrees (angle sun-minor planet-earth)        
    AU:     Astronomical Unit (mean distance between earth and sun: 149597870.7 km
    

Orbital elements provided by the MPC (Minor Planet Center).
Calculations by a modified version of AAPlus, a C# implementation of the AA+ project by PJ Naughter from the algorithms presented in the book "Astronomical Algorithms" by Jean Meeus.
NGC2000 dso catalog and star labels from VizieR as provided by the Strasbourg astronomical Data Center.
Tycho2 catalog from the ESO archive.